Location: Cypress Hills Dark-Sky Preserve - CHICO
(49.6176°N, 110.2634°W)
Time: 19:23:29
(UTC-06:00)

Amateur Radio Satellites - All Passes

Search period start: 01 May 2016 18:53
Search period end: 02 May 2016 18:53
Location: Cypress Hills Dark-Sky Preserve - CHICO, 49.6176°N, 110.2634°W

Satellite Date Start Highest point End Downlink Frequencies (MHz)
Time Altitude Azimuth
STARS 01 May 19:01:12 19:04:29 21° 299° (WNW) 19:07:45 437.465
Cubesat XI-IV 01 May 19:09:46 19:15:00 55° 259° (W) 19:20:15 437.490
NOAA 15 01 May 19:13:12 19:18:01 35° 264° (W) 19:22:53 137.62
SEEDS 01 May 19:18:00 19:19:59 13° 58° (ENE) 19:21:56 437.485
STRAND 1 01 May 19:24:11 19:27:10 15° 88° (E) 19:30:09 437.568
COMPASS 1 01 May 19:24:33 19:25:50 11° 56° (NE) 19:27:08 437.405
PCSat 01 May 19:27:52 19:31:54 21° 332° (NNW) 19:35:58 145.827
CINEMA 3 01 May 19:29:05 19:33:15 27° 63° (ENE) 19:37:24 145.822/145.860
M-CUBED/EXP-1 PRIME 01 May 19:35:26 19:39:58 45° 256° (WSW) 19:44:27 437.505
BEESAT 3 01 May 19:44:30 19:48:18 49° 123° (ESE) 19:52:09 437.485
CANX-2 01 May 19:48:43 19:52:34 35° 68° (ENE) 19:56:24 2200.000
BEESAT 2 01 May 19:49:31 19:53:09 34° 120° (ESE) 19:56:48 435.950
LilacSat-2 01 May 19:51:22 19:54:08 19° 268° (W) 19:56:55 437.200
Cosmos 2491 01 May 19:53:57 20:02:08 45° 274° (W) 20:10:16 435.465 / 435.565
AAUSAT CUBESAT 2 01 May 19:54:56 19:57:43 18° 61° (ENE) 20:00:29 437.432
AUBIESAT-1 01 May 19:55:39 19:59:54 34° 258° (WSW) 20:04:06 437.475
HO-68 01 May 19:56:59 20:04:01 62° 66° (ENE) 20:11:05 435.675
Oscar 11 01 May 20:05:14 20:06:43 12° 55° (NE) 20:08:12 145.826/435.025
CUTE-I 01 May 20:07:41 20:11:30 20° 270° (W) 20:15:20 437.470
YUBILEINY 01 May 20:10:13 20:18:59 88° 279° (W) 20:27:45 435.215
NOAA 18 01 May 20:10:39 20:13:46 15° 273° (W) 20:16:53 137.9125
GOMX 1 01 May 20:10:44 20:15:20 34° 266° (W) 20:20:12 467.674
DOVE 4 01 May 20:12:30 20:17:32 58° 260° (W) 20:22:48 437.250
FUNcube-1 01 May 20:14:32 20:16:28 13° 56° (ENE) 20:18:22 145.935
CUBESAT XI-V 01 May 20:15:19 20:19:09 25° 297° (WNW) 20:23:00 437.345
UWE-3 01 May 20:20:48 20:24:14 21° 61° (ENE) 20:27:36 435.000/436.395/437.385
CUTE 1.7 + AOD 2 01 May 20:21:21 20:25:32 65° 72° (ENE) 20:29:43 437.475
CUBEBUG 2 01 May 20:24:49 20:28:55 30° 65° (ENE) 20:32:57 437.445
RS-15 01 May 20:25:31 20:29:54 13° 90° (E) 20:34:19 29.354- 29.394
AO-85 01 May 20:29:49 20:34:07 27° 30° (NNE) 20:38:07 145.980
BRITE-PL 01 May 20:33:49 20:35:59 13° 278° (W) 20:38:13 437.365/2234.400
PRISM 01 May 20:36:49 20:39:04 14° 89° (E) 20:41:19 437.425
Cosmos 2504 01 May 20:38:01 20:44:38 41° 88° (E) 20:51:14 435.465 / 435.565
SEEDS 01 May 20:50:54 20:55:05 85° 259° (W) 20:59:17 437.485
ZACube-1 01 May 20:53:48 20:57:39 28° 65° (ENE) 21:01:26 437.345
COMPASS 1 01 May 20:56:35 21:00:43 82° 75° (ENE) 21:04:53 437.405
STRAND 1 01 May 21:01:53 21:07:01 83° 284° (WNW) 21:12:07 437.568
CINEMA 3 01 May 21:05:13 21:10:07 51° 262° (W) 21:15:01 145.822/145.860
AIST 2 01 May 21:11:44 21:14:51 21° 115° (ESE) 21:17:59 435.215
PCSat 01 May 21:15:16 21:17:30 12° 358° (N) 21:19:43 145.827
DELFI C3 01 May 21:17:53 21:21:09 25° 65° (ENE) 21:24:25 145.870
BEESAT 3 01 May 21:22:47 21:26:13 27° 323° (NW) 21:29:41 437.485
CANX-2 01 May 21:24:54 21:28:29 27° 266° (W) 21:32:06 2200.000
BEESAT 2 01 May 21:27:19 21:31:01 35° 320° (NW) 21:34:44 435.950
AAUSAT CUBESAT 2 01 May 21:28:47 21:32:50 57° 260° (W) 21:36:54 437.432
Oscar 11 01 May 21:37:49 21:42:07 79° 76° (ENE) 21:46:28 145.826/435.025
HO-68 01 May 21:45:56 21:52:11 32° 266° (W) 21:58:29 435.675
FUNcube-1 01 May 21:47:30 21:52:02 82° 74° (ENE) 21:56:29 145.935
UWE-3 01 May 21:55:45 22:00:20 58° 260° (W) 22:04:51 435.000/436.395/437.385
CUTE 1.7 + AOD 2 01 May 21:59:24 22:01:50 15° 271° (W) 22:04:16 437.475
CUBEBUG 2 01 May 22:00:59 22:05:25 39° 263° (W) 22:09:50 437.445
HUMSAT D 01 May 22:07:17 22:11:13 39° 69° (ENE) 22:15:08 437.325/437.525
AO-85 01 May 22:10:14 22:15:12 79° 233° (SW) 22:19:41 145.980
YUBILEINY 01 May 22:10:22 22:17:10 25° 304° (WNW) 22:24:01 435.215
PRISM 01 May 22:10:41 22:14:51 68° 287° (WNW) 22:18:59 437.425
CUBEBUG 1 01 May 22:23:16 22:25:01 12° 55° (NE) 22:26:46 437.445
RS-15 01 May 22:28:20 22:39:11 55° 115° (ESE) 22:50:38 29.354- 29.394
ZACube-1 01 May 22:29:34 22:33:49 39° 263° (W) 22:38:01 437.345
Cosmos 2504 01 May 22:31:06 22:37:58 45° 289° (WNW) 22:44:49 435.465 / 435.565
COMPASS 1 01 May 22:35:31 22:36:52 11° 273° (W) 22:38:14 437.405
TIGRISAT 01 May 22:36:09 22:38:05 13° 87° (E) 22:39:59 435.000
STRAND 1 01 May 22:42:30 22:45:27 16° 306° (NW) 22:48:24 437.568
VELOX 1 01 May 22:45:47 22:48:58 20° 60° (ENE) 22:52:11 145.980
DX 1 01 May 22:46:53 22:49:54 18° 59° (ENE) 22:52:56 434.975-435.025
AIST 2 01 May 22:48:56 22:53:00 57° 314° (NW) 22:57:08 435.215
DELFI C3 01 May 22:52:20 22:55:55 33° 263° (W) 22:59:33 145.870
UKube-1 01 May 22:55:31 22:58:29 18° 59° (ENE) 23:01:29 .
50 SAT 01 May 22:56:17 22:59:06 21° 64° (ENE) 23:01:54 437.505
ANTELSAT 01 May 22:59:20 23:02:45 22° 92° (E) 23:06:08 437.575/2403.000
PCSat 01 May 22:59:29 23:03:12 18° 24° (NNE) 23:06:53 145.827
BEESAT 3 01 May 23:04:18 23:05:13 11° 346° (NNW) 23:06:08 437.485
BEESAT 2 01 May 23:08:21 23:10:00 12° 342° (NNW) 23:11:38 435.950
AISAT 01 May 23:16:35 23:20:41 37° 67° (ENE) 23:24:49 437.250
Oscar 11 01 May 23:16:52 23:18:50 13° 273° (W) 23:20:48 145.826/435.025
FUNcube-1 01 May 23:26:42 23:28:50 13° 273° (W) 23:30:58 145.935
SPROUT 01 May 23:27:22 23:30:26 19° 61° (ENE) 23:33:31 437.525
ESTCUBE 1 01 May 23:30:17 23:34:42 61° 72° (ENE) 23:39:08 437.505/2401.250
O/OREOS (USA 219) 01 May 23:37:41 23:40:43 17° 43° (NE) 23:43:42 437.305
HUMSAT D 01 May 23:43:33 23:46:59 24° 267° (W) 23:50:24 437.325/437.525
NANOSAT C BR1 01 May 23:52:30 23:55:12 16° 90° (E) 23:57:52 145.865
AO-85 01 May 23:52:50 23:54:44 12° 254° (WSW) 23:56:34 145.980
UNISAT 6 01 May 23:53:02 23:57:26 74° 102° (ESE) 00:01:43 437.425
CUBEBUG 1 01 May 23:56:11 00:00:33 79° 75° (ENE) 00:05:01 437.445
AIST 1 02 May 00:00:28 00:02:04 12° 81° (E) 00:03:40
GONETS M04 02 May 00:00:31 00:07:20 26° 78° (ENE) 00:14:07
TISAT 1 02 May 00:06:00 00:08:38 16° 59° (ENE) 00:11:16 437.305
TIGRISAT 02 May 00:11:00 00:15:24 79° 285° (WNW) 00:19:40 435.000
VELOX 1 02 May 00:20:41 00:25:04 59° 259° (WSW) 00:29:30 145.980
DX 1 02 May 00:21:21 00:25:40 62° 258° (WSW) 00:30:03 434.975-435.025
50 SAT 02 May 00:29:21 00:32:43 35° 262° (W) 00:36:07 437.505
AIST 2 02 May 00:29:46 00:32:21 16° 336° (NNW) 00:34:59 435.215
UKube-1 02 May 00:29:51 00:34:08 61° 258° (WSW) 00:38:28 .
CUSAT 1 02 May 00:34:54 00:38:43 15° 54° (NE) 00:42:50 437.405
JAS-2 02 May 00:35:27 00:39:26 15° 80° (E) 00:43:26 435.910
ANTELSAT 02 May 00:35:33 00:39:43 44° 291° (WNW) 00:43:47 437.575/2403.000
RS-15 02 May 00:40:14 00:51:38 63° 322° (NW) 01:03:42 29.354- 29.394
PCSat 02 May 00:42:29 00:47:50 53° 48° (NE) 00:53:09 145.827
QB50P2 02 May 00:43:16 00:47:29 55° 101° (E) 00:51:37 145.880/145.840
DUCHIFAT 1 02 May 00:44:27 00:48:35 49° 100° (E) 00:52:39 145.980
POLYITAN 1 02 May 00:45:25 00:49:38 56° 101° (E) 00:53:46 437.675
POPSAT HIP 1 02 May 00:48:18 00:52:32 58° 101° (E) 00:56:41 437.405
Cosmos 2499 02 May 00:49:02 00:54:15 23° 80° (E) 00:59:30 435.465 / 435.565
QB50P1 02 May 00:51:38 00:55:53 64° 101° (ESE) 01:00:05 145.935-145.965
AISAT 02 May 00:53:23 00:57:14 28° 265° (W) 01:01:09 437.250
SPROUT 02 May 01:01:46 01:06:02 57° 260° (W) 01:10:19 437.525
ITUPSAT 1 02 May 01:04:38 01:07:25 16° 56° (NE) 01:10:13 437.325
DANDE 02 May 01:08:44 01:11:03 12° 55° (NE) 01:13:32 436.750
ESTCUBE 1 02 May 01:08:57 01:11:56 17° 270° (W) 01:14:56 437.505/2401.250
SWISSCUBE 02 May 01:13:50 01:17:16 20° 59° (ENE) 01:20:42 437.505
O/OREOS (USA 219) 02 May 01:16:14 01:20:48 88° 250° (WSW) 01:25:19 437.305
NANOSAT C BR1 02 May 01:27:09 01:31:21 59° 288° (WNW) 01:35:29 145.865
BUGSAT 1 02 May 01:30:42 01:34:58 75° 104° (ESE) 01:39:08 437.445
UNISAT 6 02 May 01:31:00 01:33:37 16° 302° (WNW) 01:36:12 437.425
AIST 1 02 May 01:34:39 01:38:58 81° 280° (W) 01:43:22
CUBEBUG 1 02 May 01:35:21 01:37:26 13° 273° (W) 01:39:33 437.445
TISAT 1 02 May 01:39:33 01:43:48 70° 258° (WSW) 01:48:05 437.305
BEESAT 02 May 01:46:08 01:50:22 33° 64° (ENE) 01:54:37 436.000
TIGRISAT 02 May 01:49:46 01:51:20 12° 306° (NW) 01:52:53 435.000
GONETS M04 02 May 01:54:15 02:03:08 83° 281° (W) 02:12:03
Gurwin Techsat 1B 02 May 02:08:08 02:10:39 13° 86° (E) 02:13:09 435.225
CUSAT 1 02 May 02:15:22 02:22:06 58° 73° (ENE) 02:29:54 437.405
JAS-2 02 May 02:18:12 02:25:52 63° 100° (E) 02:33:38 435.910
QB50P2 02 May 02:19:53 02:22:56 19° 299° (WNW) 02:25:57 145.880/145.840
Oscar 19 02 May 02:20:03 02:24:52 36° 96° (E) 02:29:38 437.125/150
BEESAT 3 02 May 02:20:37 02:23:51 23° 34° (NE) 02:27:03 437.485
DUCHIFAT 1 02 May 02:20:48 02:23:59 21° 298° (WNW) 02:27:08 145.980
POLYITAN 1 02 May 02:22:04 02:25:04 19° 300° (WNW) 02:28:03 437.675
POPSAT HIP 1 02 May 02:24:59 02:27:55 18° 300° (WNW) 02:30:51 437.405
BEESAT 2 02 May 02:26:05 02:29:03 19° 30° (NNE) 02:31:59 435.950
PCSat 02 May 02:26:16 02:31:01 31° 248° (WSW) 02:35:43 145.827
QB50P1 02 May 02:28:27 02:31:13 17° 301° (WNW) 02:33:59 145.935-145.965
KKS-1 02 May 02:31:32 02:34:03 15° 56° (ENE) 02:36:34 437.445
Cosmos 2499 02 May 02:39:28 02:46:33 76° 282° (WNW) 02:53:43 435.465 / 435.565
ITUPSAT 1 02 May 02:39:51 02:44:37 88° 251° (WSW) 02:49:25 437.325
DANDE 02 May 02:49:02 02:54:57 53° 74° (ENE) 03:02:24 436.750
SWISSCUBE 02 May 02:49:55 02:54:38 65° 258° (WSW) 02:59:23 437.505
STARS 02 May 02:51:22 02:53:23 13° 55° (NE) 02:55:24 437.465
RS-15 02 May 02:56:02 03:06:57 40° 354° (N) 03:18:16 29.354- 29.394
O/OREOS (USA 219) 02 May 02:57:51 02:59:26 12° 263° (W) 03:01:02 437.305
BUGSAT 1 02 May 03:07:24 03:09:48 15° 302° (WNW) 03:12:11 437.445
AIST 1 02 May 03:16:13 03:17:23 11° 301° (WNW) 03:18:33
BEESAT 02 May 03:23:45 03:28:08 36° 263° (W) 03:32:32 436.000
ITAMSAT 1 02 May 03:36:35 03:41:14 32° 96° (E) 03:45:50 435.822/435.867
Gurwin Techsat 1B 02 May 03:46:05 03:51:27 83° 105° (ESE) 03:56:46 435.225
AIST 2 02 May 03:50:10 03:52:47 16° 24° (NNE) 03:55:23 435.215
GONETS M04 02 May 03:54:43 04:01:28 24° 305° (NW) 04:08:16
CUSAT 1 02 May 03:57:49 04:04:05 37° 270° (W) 04:11:09 437.405
BEESAT 3 02 May 03:57:59 04:01:55 65° 235° (SW) 04:05:49 437.485
Oscar 19 02 May 03:59:26 04:04:12 37° 295° (WNW) 04:08:57 437.125/150
MOZHAYETS 4 02 May 04:02:09 04:06:38 58° 71° (ENE) 04:11:07
BEESAT 2 02 May 04:03:26 04:07:27 90° 53° (NE) 04:11:26 435.950
JAS-2 02 May 04:03:39 04:10:31 38° 300° (WNW) 04:17:35 435.910
KKS-1 02 May 04:05:31 04:10:00 85° 254° (WSW) 04:14:33 437.445
AO-7 02 May 04:07:29 04:14:24 28° 92° (E) 04:21:18 29.400- 29.500
CUBESAT XI-V 02 May 04:11:03 04:12:48 12° 54° (NE) 04:14:34 437.345
YUBILEINY 02 May 04:19:23 04:24:32 16° 48° (NE) 04:29:40 435.215
ITUPSAT 1 02 May 04:21:13 04:23:12 12° 273° (W) 04:25:10 437.325
STARS 02 May 04:24:36 04:29:03 83° 74° (ENE) 04:33:32 437.465
DANDE 02 May 04:32:07 04:37:44 37° 268° (W) 04:44:35 436.750
Cosmos 2499 02 May 04:36:40 04:41:07 17° 306° (NW) 04:45:37 435.465 / 435.565
RS-15 02 May 05:11:11 05:22:53 50° 27° (NNE) 05:34:48 29.354- 29.394
ITAMSAT 1 02 May 05:15:57 05:20:48 42° 294° (WNW) 05:25:39 435.822/435.867
Cosmos 2491 02 May 05:16:12 05:17:12 10° 65° (ENE) 05:18:12 435.465 / 435.565
HORYU 2 02 May 05:20:09 05:23:41 23° 93° (E) 05:27:12 437.375
Gurwin Techsat 1B 02 May 05:27:08 05:30:47 19° 304° (NW) 05:34:26 435.225
AIST 2 02 May 05:28:00 05:32:07 57° 46° (NE) 05:36:12 435.215
MOZHAYETS 4 02 May 05:40:56 05:44:11 19° 270° (W) 05:47:26
BEESAT 2 02 May 05:43:06 05:44:41 12° 250° (WSW) 05:46:15 435.950
CUBESAT XI-V 02 May 05:44:48 05:49:23 74° 74° (ENE) 05:54:01 437.345
KKS-1 02 May 05:46:03 05:47:18 11° 274° (W) 05:48:33 437.445
JAS-2 02 May 05:51:21 05:53:35 11° 321° (NW) 05:55:51 435.910
AO-7 02 May 05:59:41 06:08:01 79° 293° (WNW) 06:16:21 29.400- 29.500
STARS 02 May 06:04:01 06:06:01 13° 272° (W) 06:08:02 437.465
YUBILEINY 02 May 06:14:58 06:23:36 60° 74° (ENE) 06:32:10 435.215
Cosmos 2504 02 May 06:23:56 06:29:22 21° 58° (ENE) 06:35:00 435.465 / 435.565
CUTE-I 02 May 06:39:02 06:42:51 20° 90° (E) 06:46:37 437.470
STRAND 1 02 May 06:43:42 06:48:17 35° 64° (ENE) 06:52:53 437.568
NOAA 18 02 May 06:44:49 06:49:26 27° 94° (E) 06:54:01 137.9125
BRITE-PL 02 May 06:52:00 06:56:54 29° 92° (E) 07:01:45 437.365/2234.400
HORYU 2 02 May 06:56:14 07:00:28 45° 292° (WNW) 07:04:40 437.375
Cosmos 2491 02 May 07:03:21 07:11:41 49° 88° (E) 07:20:04 435.465 / 435.565
AIST 2 02 May 07:07:09 07:10:17 21° 245° (WSW) 07:13:23 435.215
SO-50 02 May 07:08:40 07:11:36 16° 110° (ESE) 07:14:32 436.795
LilacSat-2 02 May 07:19:16 07:22:49 35° 97° (E) 07:26:19 437.200
Cubesat XI-IV 02 May 07:22:24 07:27:28 43° 98° (E) 07:32:31 437.490
NOAA 15 02 May 07:23:06 07:28:25 62° 102° (ESE) 07:33:41 137.62
RS-15 02 May 07:24:20 07:36:35 80° 235° (SW) 07:48:53 29.354- 29.394
CUBESAT XI-V 02 May 07:24:39 07:27:19 15° 272° (W) 07:30:01 437.345
PRISM 02 May 07:30:18 07:33:13 19° 61° (ENE) 07:36:10 437.425
AUBIESAT-1 02 May 07:33:30 07:33:49 10° 91° (E) 07:34:09 437.475
ISS 02 May 07:45:46 07:46:40 11° 135° (SE) 07:47:34 145.825
AO-7 02 May 07:53:20 07:59:40 25° 316° (NW) 08:06:01 29.400- 29.500
GOMX 1 02 May 08:07:25 08:12:53 61° 100° (E) 08:18:08 467.674
DOVE 4 02 May 08:07:27 08:12:08 33° 93° (E) 08:16:36 437.250
YUBILEINY 02 May 08:12:19 08:20:01 37° 276° (W) 08:27:43 435.215
Cosmos 2504 02 May 08:16:23 08:23:54 84° 80° (E) 08:31:57 435.465 / 435.565
CUTE-I 02 May 08:18:07 08:23:26 70° 288° (WNW) 08:28:43 437.470
STRAND 1 02 May 08:22:43 08:27:26 38° 263° (W) 08:32:11 437.568
NOAA 18 02 May 08:25:05 08:30:24 53° 293° (WNW) 08:35:40 137.9125
BRITE-PL 02 May 08:30:05 08:35:37 54° 291° (WNW) 08:41:08 437.365/2234.400
SEEDS 02 May 08:32:15 08:33:57 12° 87° (E) 08:35:37 437.485
M-CUBED/EXP-1 PRIME 02 May 08:45:41 08:49:48 73° 108° (ESE) 08:53:32 437.505
SO-50 02 May 08:46:30 08:51:26 88° 129° (SE) 08:56:22 436.795
LilacSat-2 02 May 08:53:57 08:56:58 22° 295° (WNW) 08:59:58 437.200
CINEMA 3 02 May 08:56:05 09:00:16 30° 94° (E) 09:04:13 145.822/145.860
Cosmos 2491 02 May 09:00:14 09:08:38 47° 291° (WNW) 09:17:08 435.465 / 435.565
Cubesat XI-IV 02 May 09:02:43 09:07:27 33° 297° (WNW) 09:12:10 437.490
NOAA 15 02 May 09:03:35 09:07:48 24° 301° (WNW) 09:12:01 137.62
PRISM 02 May 09:04:14 09:08:13 51° 259° (W) 09:12:15 437.425
CANX-2 02 May 09:04:47 09:08:44 37° 97° (E) 09:12:40 2200.000
AUBIESAT-1 02 May 09:05:00 09:09:03 84° 295° (WNW) 09:12:45 437.475
HO-68 02 May 09:07:23 09:14:10 43° 98° (E) 09:20:54 435.675
AAUSAT CUBESAT 2 02 May 09:07:34 09:10:16 17° 90° (E) 09:12:58 437.432
ISS 02 May 09:19:21 09:22:31 51° 153° (SSE) 09:25:42 145.825
UNISAT 6 02 May 09:21:07 09:24:02 17° 58° (ENE) 09:26:55 437.425
Oscar 11 02 May 09:23:09 09:24:09 11° 86° (E) 09:25:10 145.826/435.025
FUNcube-1 02 May 09:33:43 09:34:51 11° 86° (E) 09:35:59 145.935
CUTE 1.7 + AOD 2 02 May 09:37:34 09:41:47 72° 102° (ESE) 09:46:00 437.475
RS-15 02 May 09:38:00 09:47:15 26° 260° (W) 09:56:33 29.354- 29.394
TIGRISAT 02 May 09:38:08 09:41:39 22° 62° (ENE) 09:45:08 435.000
UWE-3 02 May 09:41:52 09:45:07 21° 91° (E) 09:48:17 435.000/436.395/437.385
DOVE 4 02 May 09:45:02 09:49:54 40° 294° (WNW) 09:54:32 437.250
GOMX 1 02 May 09:46:06 09:50:32 26° 300° (WNW) 09:54:53 467.674
CUBEBUG 2 02 May 09:47:36 09:51:33 32° 95° (E) 09:55:21 437.445
CUTE-I 02 May 09:59:55 10:02:35 14° 309° (NW) 10:05:15 437.470
ANTELSAT 02 May 10:01:46 10:05:59 35° 67° (ENE) 10:10:08 437.575/2403.000
GONETS M04 02 May 10:03:29 10:09:01 18° 49° (NE) 10:14:31
SEEDS 02 May 10:06:00 10:10:13 79° 284° (WNW) 10:14:24 437.485
QB50P2 02 May 10:07:52 10:08:57 11° 54° (NE) 10:10:02 145.880/145.840
NOAA 18 02 May 10:08:16 10:09:55 11° 313° (NW) 10:11:32 137.9125
POLYITAN 1 02 May 10:09:54 10:11:06 11° 55° (NE) 10:12:17 437.675
COMPASS 1 02 May 10:10:29 10:14:41 86° 108° (ESE) 10:18:51 437.405
BRITE-PL 02 May 10:10:51 10:12:56 12° 310° (NW) 10:15:01 437.365/2234.400
Cosmos 2504 02 May 10:10:58 10:16:27 22° 280° (W) 10:22:11 435.465 / 435.565
POPSAT HIP 1 02 May 10:12:29 10:13:50 11° 55° (NE) 10:15:12 437.405
ZACube-1 02 May 10:13:38 10:17:21 29° 94° (E) 10:20:59 437.345
QB50P1 02 May 10:15:22 10:17:05 12° 56° (NE) 10:18:49 145.935-145.965
M-CUBED/EXP-1 PRIME 02 May 10:21:20 10:23:47 16° 309° (NW) 10:26:08 437.505
DELFI C3 02 May 10:25:44 10:28:55 22° 93° (E) 10:32:04 145.870
SO-50 02 May 10:28:28 10:32:33 25° 330° (NNW) 10:36:37 436.795
Cosmos 2499 02 May 10:32:58 10:36:06 13° 48° (NE) 10:39:19 435.465 / 435.565
CINEMA 3 02 May 10:33:07 10:37:28 36° 293° (WNW) 10:41:36 145.822/145.860
CANX-2 02 May 10:40:57 10:44:28 26° 295° (WNW) 10:47:57 2200.000
AUBIESAT-1 02 May 10:41:09 10:42:49 12° 312° (NW) 10:44:26 437.475
AAUSAT CUBESAT 2 02 May 10:42:03 10:46:07 55° 288° (WNW) 10:50:10 437.432
NANOSAT C BR1 02 May 10:48:35 10:51:55 23° 63° (ENE) 10:55:16 145.865
BUGSAT 1 02 May 10:51:40 10:53:41 13° 57° (ENE) 10:55:43 437.445
HO-68 02 May 10:55:12 11:01:59 48° 298° (WNW) 11:08:45 435.675
UNISAT 6 02 May 10:55:34 11:00:14 77° 256° (WSW) 11:04:50 437.425
ISS 02 May 10:55:44 10:58:59 62° 353° (N) 11:02:14 145.825
JAS-2 02 May 10:55:49 10:57:51 11° 39° (NE) 10:59:56 435.910
Oscar 11 02 May 10:56:38 11:00:58 88° 99° (E) 11:05:17 145.826/435.025
Cosmos 2491 02 May 11:04:40 11:08:24 13° 319° (NW) 11:12:08 435.465 / 435.565
FUNcube-1 02 May 11:07:31 11:11:47 86° 284° (WNW) 11:15:56 145.935
TIGRISAT 02 May 11:13:27 11:18:01 55° 259° (W) 11:22:32 435.000
CUTE 1.7 + AOD 2 02 May 11:14:40 11:17:08 15° 301° (WNW) 11:19:36 437.475
UWE-3 02 May 11:17:43 11:21:51 46° 291° (WNW) 11:25:52 435.000/436.395/437.385
HUMSAT D 02 May 11:21:44 11:25:36 39° 98° (E) 11:29:26 437.325/437.525
CUBEBUG 2 02 May 11:24:18 11:28:09 30° 295° (WNW) 11:31:53 437.445
AIST 1 02 May 11:37:09 11:41:20 39° 73° (ENE) 11:45:28
ANTELSAT 02 May 11:38:35 11:42:44 31° 265° (W) 11:46:49 437.575/2403.000
QB50P2 02 May 11:39:43 11:44:00 72° 73° (ENE) 11:48:18 145.880/145.840
DUCHIFAT 1 02 May 11:40:10 11:44:22 64° 73° (ENE) 11:48:37 145.980
POLYITAN 1 02 May 11:41:51 11:46:08 74° 74° (ENE) 11:50:27 437.675
CUBEBUG 1 02 May 11:42:42 11:44:03 11° 86° (E) 11:45:24 437.445
SEEDS 02 May 11:44:00 11:45:13 11° 304° (NW) 11:46:25 437.485
POPSAT HIP 1 02 May 11:44:36 11:48:53 76° 74° (ENE) 11:53:12 437.405
COMPASS 1 02 May 11:47:45 11:49:39 13° 302° (WNW) 11:51:32 437.405
QB50P1 02 May 11:47:54 11:52:10 83° 77° (ENE) 11:56:30 145.935-145.965
ZACube-1 02 May 11:49:53 11:53:40 32° 294° (WNW) 11:57:23 437.345
50 SAT 02 May 11:55:40 11:57:44 14° 91° (E) 11:59:47 437.505
GONETS M04 02 May 11:59:15 12:08:00 64° 75° (ENE) 12:16:38
DELFI C3 02 May 12:00:13 12:03:56 38° 291° (WNW) 12:07:38 145.870
Oscar 19 02 May 12:04:46 12:07:41 15° 53° (NE) 12:10:37 437.125/150
DX 1 02 May 12:06:05 12:08:58 17° 90° (E) 12:11:49 434.975-435.025
VELOX 1 02 May 12:07:05 12:10:21 20° 91° (E) 12:13:37 145.980
SO-50 02 May 12:12:06 12:14:41 14° 355° (N) 12:17:15 436.795
UKube-1 02 May 12:13:35 12:16:22 16° 90° (E) 12:19:07 .
NANOSAT C BR1 02 May 12:23:18 12:27:24 46° 261° (W) 12:31:33 145.865
Cosmos 2499 02 May 12:23:53 12:31:16 52° 73° (ENE) 12:39:12 435.465 / 435.565
BUGSAT 1 02 May 12:24:10 12:28:26 89° 272° (W) 12:32:44 437.445
AO-85 02 May 12:29:53 12:33:01 16° 108° (ESE) 12:36:08 145.980
ISS 02 May 12:32:23 12:35:39 71° 12° (NNE) 12:38:55 145.825
Oscar 11 02 May 12:34:25 12:36:28 13° 303° (WNW) 12:38:32 145.826/435.025
JAS-2 02 May 12:35:13 12:40:58 42° 62° (ENE) 12:47:28 435.910
UNISAT 6 02 May 12:37:17 12:37:42 10° 275° (W) 12:38:08 437.425
AISAT 02 May 12:38:29 12:42:43 39° 98° (E) 12:46:55 437.250
SPROUT 02 May 12:44:11 12:47:14 18° 91° (E) 12:50:14 437.525
HO-68 02 May 12:44:49 12:48:05 14° 321° (NW) 12:51:21 435.675
FUNcube-1 02 May 12:45:44 12:47:20 12° 304° (NW) 12:48:57 145.935
PHONESAT 2.4 02 May 12:46:21 12:48:20 16° 175° (S) 12:50:19 2401.200-2431.200
ESTCUBE 1 02 May 12:54:56 12:59:29 74° 103° (ESE) 13:04:01 437.505/2401.250
HUMSAT D 02 May 12:57:47 13:01:04 23° 296° (WNW) 13:04:19 437.325/437.525
AIST 1 02 May 13:15:11 13:18:44 24° 272° (W) 13:22:16
CUBEBUG 1 02 May 13:16:33 13:21:02 87° 102° (ESE) 13:25:29 437.445
DUCHIFAT 1 02 May 13:17:56 13:20:30 16° 271° (W) 13:23:06 145.980
QB50P2 02 May 13:18:04 13:20:19 14° 272° (W) 13:22:34 145.880/145.840
POLYITAN 1 02 May 13:20:16 13:22:28 14° 272° (W) 13:24:41 437.675
TISAT 1 02 May 13:20:37 13:22:50 14° 89° (E) 13:25:01 437.305
ITAMSAT 1 02 May 13:22:32 13:25:14 14° 52° (NE) 13:27:56 435.822/435.867
AO-7 02 May 13:22:36 13:27:49 19° 37° (NE) 13:33:03 29.400- 29.500
POPSAT HIP 1 02 May 13:23:09 13:25:13 13° 272° (W) 13:27:17 437.405
QB50P1 02 May 13:26:52 13:28:34 12° 273° (W) 13:30:15 145.935-145.965
50 SAT 02 May 13:28:17 13:31:51 51° 288° (WNW) 13:35:24 437.505
Gurwin Techsat 1B 02 May 13:32:35 13:37:17 33° 63° (ENE) 13:42:01 435.225
Oscar 19 02 May 13:41:02 13:46:13 80° 73° (ENE) 13:51:27 437.125/150
DX 1 02 May 13:41:13 13:45:34 62° 289° (WNW) 13:49:54 434.975-435.025
VELOX 1 02 May 13:42:47 13:47:10 54° 290° (WNW) 13:51:31 145.980
UKube-1 02 May 13:48:31 13:52:50 62° 289° (WNW) 13:57:07 .
SO-50 02 May 13:53:44 13:57:03 18° 19° (NNE) 14:00:18 436.795
GONETS M04 02 May 13:56:42 14:04:19 35° 277° (W) 14:11:53
BUGSAT 1 02 May 14:03:25 14:04:28 11° 274° (W) 14:05:30 437.445
AO-85 02 May 14:07:19 14:12:48 78° 127° (SE) 14:18:10 145.980
ISS 02 May 14:08:58 14:12:00 36° 212° (SSW) 14:15:02 145.825
AISAT 02 May 14:15:16 14:19:04 28° 296° (WNW) 14:22:51 437.250
Cosmos 2499 02 May 14:17:18 14:24:15 40° 273° (W) 14:31:40 435.465 / 435.565
SPROUT 02 May 14:19:19 14:23:32 53° 289° (WNW) 14:27:42 437.525
JAS-2 02 May 14:20:16 14:26:02 43° 265° (W) 14:32:34 435.910
PHONESAT 2.4 02 May 14:22:51 14:24:30 13° 192° (SSW) 14:26:07 2401.200-2431.200
ESTCUBE 1 02 May 14:32:54 14:35:46 17° 302° (WNW) 14:38:39 437.505/2401.250
ITUPSAT 1 02 May 14:36:53 14:40:05 18° 90° (E) 14:43:15 437.325
SWISSCUBE 02 May 14:46:06 14:49:56 23° 93° (E) 14:53:43 437.505
CUBEBUG 1 02 May 14:54:20 14:56:42 14° 303° (WNW) 14:59:03 437.445
TISAT 1 02 May 14:54:45 14:59:00 71° 287° (WNW) 15:03:11 437.305
ITAMSAT 1 02 May 14:58:43 15:03:53 75° 72° (ENE) 15:09:04 435.822/435.867
AO-7 02 May 15:10:56 15:18:57 57° 61° (ENE) 15:26:59 29.400- 29.500
Gurwin Techsat 1B 02 May 15:12:06 15:17:08 43° 262° (W) 15:22:13 435.225
BEESAT 02 May 15:18:55 15:23:27 41° 98° (E) 15:27:56 436.000
Oscar 19 02 May 15:22:55 15:26:11 17° 272° (W) 15:29:28 437.125/150
CUSAT 1 02 May 15:25:44 15:28:56 28° 87° (E) 15:32:59 437.405
PCSat 02 May 15:30:21 15:33:55 18° 106° (ESE) 15:37:30 145.827
O/OREOS (USA 219) 02 May 15:32:39 15:37:02 46° 110° (ESE) 15:41:26 437.305
SO-50 02 May 15:33:58 15:38:39 50° 42° (NE) 15:43:11 436.795
AO-85 02 May 15:49:04 15:53:51 30° 327° (NNW) 15:58:29 145.980
KKS-1 02 May 15:53:36 15:55:56 14° 88° (E) 15:58:14 437.445
DANDE 02 May 16:06:01 16:08:33 24° 88° (E) 16:11:37 436.750
STARS 02 May 16:12:02 16:13:19 11° 86° (E) 16:14:35 437.465
ITUPSAT 1 02 May 16:13:39 16:18:24 67° 289° (WNW) 16:23:08 437.325
HORYU 2 02 May 16:22:00 16:26:07 37° 66° (ENE) 16:30:13 437.375
SWISSCUBE 02 May 16:23:23 16:27:59 50° 291° (WNW) 16:32:35 437.505
TISAT 1 02 May 16:33:06 16:33:52 10° 306° (NW) 16:34:38 437.305
NOAA 18 02 May 16:37:42 16:40:55 16° 51° (NE) 16:44:08 137.9125
ITAMSAT 1 02 May 16:40:30 16:43:56 18° 271° (W) 16:47:23 435.822/435.867
BEESAT 02 May 16:57:00 17:01:06 29° 297° (WNW) 17:05:11 436.000
AO-7 02 May 17:04:17 17:12:00 42° 262° (W) 17:19:47 29.400- 29.500
CUSAT 1 02 May 17:07:39 17:11:02 29° 297° (WNW) 17:15:19 437.405
Cosmos 2491 02 May 17:07:55 17:15:39 32° 62° (ENE) 17:23:17 435.465 / 435.565
NOAA 15 02 May 17:09:13 17:13:32 26° 60° (ENE) 17:17:53 137.62
Cubesat XI-IV 02 May 17:10:55 17:14:40 20° 56° (NE) 17:18:25 437.490
PCSat 02 May 17:11:11 17:16:38 86° 305° (NW) 17:22:07 145.827
O/OREOS (USA 219) 02 May 17:12:40 17:16:39 28° 310° (NW) 17:20:37 437.305
SO-50 02 May 17:14:49 17:18:58 30° 243° (WSW) 17:22:58 436.795
KKS-1 02 May 17:28:34 17:33:04 77° 286° (WNW) 17:37:31 437.445
MOZHAYETS 4 02 May 17:29:37 17:34:13 76° 103° (ESE) 17:38:47
YUBILEINY 02 May 17:31:21 17:34:46 13° 68° (ENE) 17:38:12 435.215
AO-85 02 May 17:32:47 17:35:58 16° 351° (N) 17:39:02 145.980
CUBESAT XI-V 02 May 17:38:20 17:40:48 14° 87° (E) 17:43:15 437.345
GOMX 1 02 May 17:43:33 17:46:59 18° 56° (NE) 17:50:31 467.674
DOVE 4 02 May 17:43:49 17:44:45 10° 49° (NE) 17:45:42 437.250
STARS 02 May 17:45:55 17:50:23 88° 108° (ESE) 17:54:47 437.465
DANDE 02 May 17:48:54 17:51:26 21° 298° (WNW) 17:54:28 436.750
ITUPSAT 1 02 May 17:53:41 17:55:23 12° 308° (NW) 17:57:05 437.325
HO-68 02 May 17:57:31 18:01:03 14° 40° (NE) 18:04:34 435.675
HORYU 2 02 May 17:58:53 18:02:45 28° 265° (W) 18:06:38 437.375
M-CUBED/EXP-1 PRIME 02 May 18:01:41 18:05:41 28° 58° (ENE) 18:09:37 437.505
CUTE-I 02 May 18:04:45 18:09:50 48° 67° (ENE) 18:14:57 437.470
LilacSat-2 02 May 18:05:17 18:08:49 34° 68° (ENE) 18:12:21 437.200
BRITE-PL 02 May 18:06:53 18:11:32 43° 67° (ENE) 18:16:34 437.365/2234.400
NOAA 18 02 May 18:15:14 18:20:45 77° 71° (ENE) 18:26:16 137.9125
AUBIESAT-1 02 May 18:20:21 18:24:31 34° 60° (ENE) 18:28:36 437.475
